Estación de Recoleta

Ultimos registro cada 15 minutos 43
Estación Fecha / Hora Temperatura Humedad Lluvia Velocidad Dirección Radiación Presion
43 Recoleta 02-05-2026 10:30 23,7 32,8 0 0 143 575,6 969,1
42 Recoleta 02-05-2026 10:15 22,4 37,3 0 0 143 546,9 968,9
41 Recoleta 02-05-2026 10:00 22,2 39,8 0 0 166 175,6 969
40 Recoleta 02-05-2026 09:45 21 43,6 0 0 180 114,4 969,2
39 Recoleta 02-05-2026 09:30 20,7 44,7 0 0 202 24,4 969,2
38 Recoleta 02-05-2026 09:15 19 50,5 0 0 292 395,6 969,1
37 Recoleta 02-05-2026 09:00 17 54,6 0 0 291 350,6 969,1
36 Recoleta 02-05-2026 08:45 15,8 58,4 0 0 291 305,6 969,2
35 Recoleta 02-05-2026 08:30 15,5 62,6 0 0 291 256,9 969
34 Recoleta 02-05-2026 08:15 13,4 68,3 0 0 291 204,4 969
33 Recoleta 02-05-2026 08:00 10,7 81,6 0 0 291 151,9 969
32 Recoleta 02-05-2026 07:45 8 87,2 0 0 291 13,1 969
31 Recoleta 02-05-2026 07:30 7 86,8 0 0 291 6,9 969
30 Recoleta 02-05-2026 07:15 6,9 86,8 0 0 291 1,9 969
29 Recoleta 02-05-2026 07:00 6,9 86,9 0 0 291 0,6 968,9
28 Recoleta 02-05-2026 06:45 7 86,8 0 0 292 0,6 968,9
27 Recoleta 02-05-2026 06:30 7,1 86,7 0 0 292 0,6 968,7
26 Recoleta 02-05-2026 06:15 7,3 85,9 0 0 292 0,6 968,8
25 Recoleta 02-05-2026 06:00 7,8 85,4 0 0 292 0,6 968,6
24 Recoleta 02-05-2026 05:45 7,6 86 0 0 293 0,6 968,8
23 Recoleta 02-05-2026 05:30 7,3 87,5 0 0 295 0,6 968,7
22 Recoleta 02-05-2026 05:15 7,4 86,5 0 0 295 0,6 968,7
21 Recoleta 02-05-2026 05:00 7,6 86,4 0 0 295 0,6 968,9
20 Recoleta 02-05-2026 04:45 7,8 86,5 0 0 295 0,6 968,8
19 Recoleta 02-05-2026 04:30 7,7 86,6 0 0 295 0,6 968,9
18 Recoleta 02-05-2026 04:15 7,9 85,8 0 0 295 0,6 968,9
17 Recoleta 02-05-2026 04:00 8,3 85,3 0 0 295 0,6 968,9
16 Recoleta 02-05-2026 03:45 8,3 84,6 0 0 295 0,6 968,9
15 Recoleta 02-05-2026 03:30 8,7 83,5 0 0 296 0,6 969,1
14 Recoleta 02-05-2026 03:15 8,6 84,6 0 0 303 0,6 969,1
13 Recoleta 02-05-2026 03:00 8,5 84,8 0 0 303 0,6 969,3
12 Recoleta 02-05-2026 02:45 8,5 84,7 0 0 305 0,6 969,3
11 Recoleta 02-05-2026 02:30 8,7 85,6 0 0 305 0,6 969,5
10 Recoleta 02-05-2026 02:15 8,7 85,7 0 0 307 0,6 969,6
9 Recoleta 02-05-2026 02:00 8,9 85 0 0 310 0,6 969,9
8 Recoleta 02-05-2026 01:45 9,2 84,6 0 0 312 0,6 970
7 Recoleta 02-05-2026 01:30 9,1 85,1 0 0 312 0,6 970,1
6 Recoleta 02-05-2026 01:15 9,3 85,5 0 0 314 0,6 970,2
5 Recoleta 02-05-2026 01:00 9,5 83,6 0 0 314 0,6 970,4
4 Recoleta 02-05-2026 00:45 10,1 82,9 0 0 312 0,6 970,4
3 Recoleta 02-05-2026 00:30 9,5 86,2 0 0 305 0,6 970,5
2 Recoleta 02-05-2026 00:15 9,5 86,7 0 0 306 0,6 970,7
1 Recoleta 02-05-2026 00:00 9,6 86,2 0 0 309 0,6 970,6